Location: Oregon Trail
(41.1872°N, 102.0741°W)
Time: 10:35:32
(UTC+00:00)

ATLAS 2AS CENTAUR R/B - Pass Details

Date: 19 November 2019
Orbit: 926 x 1286 km, 63.7° (Epoch: 09 December)

Event Time Altitude Azimuth Distance (km) Brightness Sun altitude
Exits shadow 12:51:07 - 314° (NW) 3,375 4.8 -9.5°
Reaches altitude 10° 12:51:52 10° 311° (NW) 3,132 4.6 -9.4°
Maximum altitude 12:58:31 36° 249° (WSW) 1,701 3.4 -8.2°
Drops below altitude 10° 13:04:40 10° 185° (S) 2,880 5.2 -7.1°
Sets 13:07:24 0° 177° (S) 3,777 5.9 -6.6°
